| time (UTC) | temp F | wind direction | speed knots | gust knots | rain 1hr in | rain 24hr in | rain mn in | humidity % | barometer mb |
| 20260506165153 | 53 | 136 | 1.7 | 4.3 | 0.00 | 0.14 | 0.14 | 93 | 1016.4 |
| 20260506164650 | 53 | 198 | 0.9 | 6.1 | 0.00 | 0.14 | 0.14 | 94 | 1016.4 |
| 20260506164148 | 53 | 16 | 2.6 | 6.1 | 0.00 | 0.14 | 0.14 | 94 | 1016.4 |
| 20260506163644 | 53 | 77 | 2.6 | 5.2 | 0.00 | 0.14 | 0.14 | 95 | 1016.7 |
| 20260506163139 | 53 | 95 | 1.7 | 2.6 | 0.00 | 0.14 | 0.14 | 95 | 1016.7 |
| 20260506162635 | 53 | 49 | 3.5 | 6.1 | 0.00 | 0.14 | 0.14 | 95 | 1016.7 |
| 20260506162133 | 53 | 133 | 0.9 | 5.2 | 0.00 | 0.14 | 0.14 | 96 | 1016.7 |
| 20260506161630 | 53 | 50 | 2.6 | 4.3 | 0.00 | 0.14 | 0.14 | 96 | 1016.7 |
| 20260506161127 | 52 | 170 | 0.9 | 2.6 | 0.00 | 0.14 | 0.14 | 96 | 1016.4 |
| 20260506160624 | 52 | 79 | 1.7 | 7.0 | 0.00 | 0.14 | 0.14 | 96 | 1016.7 |
| 20260506160121 | 52 | 329 | 2.6 | 7.0 | 0.00 | 0.14 | 0.14 | 96 | 1016.4 |
| 20260506155620 | 52 | 7 | 2.6 | 6.1 | 0.00 | 0.14 | 0.14 | 97 | 1016.4 |
| 20260506155116 | 53 | 47 | 3.5 | 7.8 | 0.00 | 0.14 | 0.14 | 97 | 1015.7 |
| 20260506153218 | 53 | 314 | 7.0 | 12.2 | 0.00 | 0.14 | 0.14 | 96 | 1015.7 |
| 20260506152715 | 53 | 305 | 2.6 | 5.2 | 0.05 | 0.14 | 0.14 | 96 | 1016.4 |
| 20260506152212 | 52 | 91 | 3.5 | 7.8 | 0.05 | 0.14 | 0.14 | 96 | 1016.0 |
| 20260506151712 | 53 | 255 | 1.7 | 4.3 | 0.00 | 0.13 | 0.13 | 96 | 1016.4 |
| 20260506151208 | 53 | 56 | 1.7 | 4.3 | 0.00 | 0.13 | 0.13 | 96 | 1016.7 |
| 20260506150704 | 52 | 77 | 0.9 | 4.3 | 0.00 | 0.13 | 0.13 | 95 | 1017.4 |
| 20260506150201 | 52 | 189 | 0.9 | 4.3 | 0.00 | 0.13 | 0.13 | 95 | 1017.7 |
| 20260506145658 | 53 | 331 | 2.6 | 5.2 | 0.12 | 0.13 | 0.13 | 94 | 1017.7 |
| 20260506145154 | 53 | 112 | 1.7 | 4.3 | 0.71 | 0.12 | 0.12 | 93 | 1016.4 |
| 20260506144652 | 53 | 347 | 1.7 | 6.1 | 0.66 | 0.11 | 0.11 | 91 | 1017.7 |
| 20260506144149 | 53 | 174 | 0.9 | 2.6 | 0.00 | 0.00 | 0.00 | 90 | 1018.4 |
| 20260506143646 | 53 | 251 | 2.6 | 2.6 | 0.00 | 0.00 | 0.00 | 90 | 1018.1 |
| 20260506143144 | 53 | 336 | 4.3 | 5.2 | 0.00 | 0.00 | 0.00 | 90 | 1017.7 |
| 20260506142643 | 53 | 239 | 1.7 | 4.3 | 0.00 | 0.00 | 0.00 | 89 | 1017.7 |
| 20260506142140 | 53 | 275 | 0.9 | 5.2 | 0.00 | 0.00 | 0.00 | 89 | 1018.1 |
| 20260506141637 | 53 | 35 | 6.1 | 7.0 | 0.00 | 0.00 | 0.00 | 89 | 1016.0 |
| 20260506141136 | 53 | 314 | 2.6 | 4.3 | 0.00 | 0.00 | 0.00 | 89 | 1015.7 |
| 20260506140633 | 53 | 136 | 0.9 | 5.2 | 0.00 | 0.00 | 0.00 | 89 | 1016.0 |
| 20260506140130 | 53 | 3 | 3.5 | 5.2 | 0.00 | 0.00 | 0.00 | 89 | 1016.4 |
| 20260506135627 | 53 | 239 | 2.6 | 7.0 | 0.00 | 0.00 | 0.00 | 88 | 1016.7 |
| 20260506135123 | 53 | 350 | 4.3 | 6.1 | 0.00 | 0.00 | 0.00 | 88 | 1017.0 |
| 20260506134620 | 53 | 23 | 2.6 | 8.7 | 0.00 | 0.00 | 0.00 | 88 | 1016.7 |
| 20260506134115 | 53 | 250 | 1.7 | 5.2 | 0.00 | 0.00 | 0.00 | 88 | 1016.4 |
| 20260506133613 | 53 | 340 | 2.6 | 7.0 | 0.00 | 0.00 | 0.00 | 88 | 1016.0 |
| 20260506133110 | 53 | 184 | 0.9 | 2.6 | 0.00 | 0.00 | 0.00 | 87 | 1016.0 |
| 20260506132607 | 53 | 267 | 3.5 | 7.0 | 0.00 | 0.00 | 0.00 | 87 | 1016.4 |
| 20260506132104 | 53 | 201 | 1.7 | 9.6 | 0.00 | 0.00 | 0.00 | 87 | 1015.7 |
| 20260506131601 | 53 | 206 | 0.9 | 4.3 | 0.00 | 0.00 | 0.00 | 86 | 1015.7 |
| 20260506131057 | 54 | 297 | 1.7 | 7.8 | 0.00 | 0.00 | 0.00 | 86 | 1015.7 |
| 20260506130555 | 53 | 203 | 0.9 | 7.0 | 0.00 | 0.00 | 0.00 | 86 | 1015.7 |
| 20260506130052 | 54 | 212 | 3.5 | 8.7 | 0.00 | 0.00 | 0.00 | 86 | 1015.7 |
| 20260506125550 | 54 | 56 | 5.2 | 9.6 | 0.00 | 0.00 | 0.00 | 85 | 1015.0 |
| 20260506125048 | 54 | 280 | 4.3 | 6.1 | 0.00 | 0.00 | 0.00 | 85 | 1015.0 |
| 20260506124545 | 54 | 37 | 4.3 | 7.8 | 0.00 | 0.00 | 0.00 | 84 | 1015.3 |
| 20260506124043 | 55 | 61 | 4.3 | 7.8 | 0.00 | 0.00 | 0.00 | 83 | 1015.3 |
| 20260506123540 | 55 | 254 | 2.6 | 12.2 | 0.00 | 0.00 | 0.00 | 83 | 1015.0 |
| 20260506123039 | 55 | 201 | 5.2 | 13.0 | 0.00 | 0.00 | 0.00 | 82 | 1015.0 |
| 20260506122535 | 55 | 195 | 2.6 | 4.3 | 0.00 | 0.00 | 0.00 | 82 | 1015.0 |
| 20260506122033 | 55 | 119 | 2.6 | 7.0 | 0.00 | 0.00 | 0.00 | 81 | 1015.0 |
| 20260506121531 | 55 | 49 | 2.6 | 5.2 | 0.00 | 0.00 | 0.00 | 81 | 1014.7 |
| 20260506121026 | 55 | 43 | 1.7 | 5.2 | 0.00 | 0.00 | 0.00 | 81 | 1014.7 |
| 20260506120525 | 55 | 17 | 4.3 | 7.0 | 0.00 | 0.00 | 0.00 | 81 | 1014.2 |
| 20260506120022 | 55 | 12 | 4.3 | 6.1 | 0.00 | 0.00 | 0.00 | 81 | 1014.7 |
| 20260506115520 | 56 | 184 | 6.1 | 11.3 | 0.00 | 0.00 | 0.00 | 81 | 1014.7 |
| 20260506115018 | 56 | 291 | 6.1 | 7.8 | 0.00 | 0.00 | 0.00 | 81 | 1015.0 |
| 20260506114515 | 56 | 38 | 1.7 | 12.2 | 0.00 | 0.00 | 0.00 | 81 | 1014.7 |
| 20260506114014 | 56 | 103 | 4.3 | 12.2 | 0.00 | 0.00 | 0.00 | 81 | 1014.7 |
| 20260506113511 | 56 | 44 | 2.6 | 7.8 | 0.00 | 0.00 | 0.00 | 81 | 1014.7 |
| 20260506113008 | 56 | 102 | 0.9 | 5.2 | 0.00 | 0.00 | 0.00 | 80 | 1014.2 |
| 20260506112504 | 56 | 34 | 4.3 | 13.0 | 0.00 | 0.00 | 0.00 | 80 | 1014.2 |
| 20260506112002 | 56 | 320 | 7.0 | 9.6 | 0.00 | 0.00 | 0.00 | 80 | 1013.9 |
| 20260506111500 | 56 | 207 | 4.3 | 8.7 | 0.00 | 0.00 | 0.00 | 80 | 1013.9 |
| 20260506110956 | 57 | 198 | 1.7 | 5.2 | 0.00 | 0.00 | 0.00 | 82 | 1013.9 |
| 20260506110454 | 57 | 88 | 2.6 | 11.3 | 0.00 | 0.00 | 0.00 | 82 | 1013.9 |
| 20260506105951 | 57 | 88 | 3.5 | 7.8 | 0.00 | 0.00 | 0.00 | 81 | 1013.6 |
| 20260506105447 | 57 | 289 | 1.7 | 7.8 | 0.00 | 0.00 | 0.00 | 82 | 1013.9 |
| 20260506104945 | 57 | 234 | 1.7 | 5.2 | 0.00 | 0.00 | 0.00 | 82 | 1013.6 |
| 20260506104443 | 57 | 31 | 4.3 | 7.0 | 0.00 | 0.00 | 0.00 | 81 | 1013.2 |
| 20260506103941 | 57 | 321 | 2.6 | 5.2 | 0.00 | 0.00 | 0.00 | 81 | 1013.2 |
| 20260506103437 | 57 | 6 | 2.6 | 6.1 | 0.00 | 0.00 | 0.00 | 80 | 1013.6 |
| 20260506102934 | 57 | 234 | 1.7 | 6.1 | 0.00 | 0.00 | 0.00 | 81 | 1013.2 |
| 20260506102433 | 57 | 81 | 1.7 | 5.2 | 0.00 | 0.00 | 0.00 | 81 | 1013.2 |
| 20260506101929 | 57 | 189 | 2.6 | 8.7 | 0.00 | 0.00 | 0.00 | 81 | 1012.9 |
| 20260506101426 | 57 | 208 | 1.7 | 13.0 | 0.00 | 0.00 | 0.00 | 81 | 1012.9 |
| 20260506100923 | 57 | 117 | 3.5 | 7.8 | 0.00 | 0.00 | 0.00 | 81 | 1012.9 |
| 20260506100421 | 57 | 22 | 6.1 | 7.0 | 0.00 | 0.00 | 0.00 | 81 | 1012.9 |
| 20260506095919 | 57 | 193 | 1.7 | 4.3 | 0.00 | 0.00 | 0.00 | 82 | 1012.9 |
| 20260506095417 | 58 | 202 | 2.6 | 7.0 | 0.00 | 0.00 | 0.00 | 82 | 1012.5 |
| 20260506094913 | 57 | 355 | 1.7 | 6.1 | 0.00 | 0.00 | 0.00 | 82 | 1012.5 |
| 20260506094412 | 58 | 57 | 5.2 | 11.3 | 0.00 | 0.00 | 0.00 | 82 | 1012.5 |
| 20260506093909 | 58 | 189 | 5.2 | 12.2 | 0.00 | 0.00 | 0.00 | 82 | 1012.5 |
| 20260506093407 | 58 | 39 | 5.2 | 7.8 | 0.00 | 0.00 | 0.00 | 83 | 1012.5 |
| 20260506092904 | 58 | 210 | 0.9 | 2.6 | 0.00 | 0.00 | 0.00 | 83 | 1012.5 |
| 20260506092402 | 58 | 303 | 2.6 | 7.8 | 0.00 | 0.00 | 0.00 | 82 | 1012.2 |
| 20260506091858 | 58 | 276 | 7.8 | 9.6 | 0.00 | 0.00 | 0.00 | 82 | 1012.5 |
| 20260506091357 | 58 | 75 | 2.6 | 7.8 | 0.00 | 0.00 | 0.00 | 82 | 1012.2 |
| 20260506090853 | 58 | 309 | 6.1 | 8.7 | 0.00 | 0.00 | 0.00 | 82 | 1012.2 |
| 20260506090351 | 58 | 248 | 3.5 | 5.2 | 0.00 | 0.00 | 0.00 | 82 | 1012.2 |
| 20260506085848 | 58 | 162 | 3.5 | 7.8 | 0.00 | 0.00 | 0.00 | 83 | 1012.2 |
| 20260506085344 | 58 | 29 | 3.5 | 8.7 | 0.00 | 0.00 | 0.00 | 83 | 1012.2 |
| 20260506084841 | 59 | 330 | 2.6 | 11.3 | 0.00 | 0.00 | 0.00 | 83 | 1012.2 |
| 20260506084338 | 59 | 176 | 2.6 | 6.1 | 0.00 | 0.00 | 0.00 | 83 | 1012.2 |
| 20260506083834 | 59 | 243 | 3.5 | 7.0 | 0.00 | 0.00 | 0.00 | 83 | 1012.2 |
| 20260506083331 | 59 | 193 | 1.7 | 6.1 | 0.00 | 0.00 | 0.00 | 83 | 1012.2 |
| 20260506082829 | 59 | 266 | 3.5 | 7.8 | 0.00 | 0.00 | 0.00 | 83 | 1011.9 |
| 20260506082325 | 59 | 11 | 2.6 | 7.0 | 0.00 | 0.00 | 0.00 | 83 | 1011.9 |
| 20260506081821 | 59 | 125 | 4.3 | 7.0 | 0.00 | 0.00 | 0.00 | 83 | 1012.2 |
| 20260506081320 | 59 | 189 | 3.5 | 7.0 | 0.00 | 0.00 | 0.00 | 84 | 1011.9 |
| 20260506080817 | 60 | 313 | 5.2 | 12.2 | 0.00 | 0.00 | 0.00 | 84 | 1012.2 |
| 20260506080313 | 60 | 265 | 2.6 | 4.3 | 0.00 | 0.00 | 0.00 | 84 | 1012.2 |
| 20260506073257 | 60 | 283 | 1.7 | 4.3 | 0.00 | 0.00 | 0.00 | 84 | 1011.9 |
| 20260506072754 | 60 | 232 | 0.9 | 1.7 | 0.00 | 0.00 | 0.00 | 84 | 1011.5 |
| 20260506072252 | 60 | 178 | 0.9 | 2.6 | 0.00 | 0.00 | 0.00 | 84 | 1011.5 |
| 20260506071749 | 60 | 182 | 0.9 | 2.6 | 0.00 | 0.00 | 0.00 | 84 | 1011.5 |
| 20260506071247 | 60 | 122 | 2.6 | 2.6 | 0.00 | 0.00 | 0.00 | 84 | 1011.5 |
| 20260506070744 | 60 | 64 | 1.7 | 2.6 | 0.00 | 0.00 | 0.00 | 84 | 1011.5 |
| 20260506070241 | 60 | 102 | 2.6 | 6.1 | 0.00 | 0.00 | 0.00 | 84 | 1011.5 |
| 20260506062218 | 61 | 252 | 1.7 | 5.2 | 0.00 | 0.00 | 0.00 | 84 | 1011.2 |
| 20260506061714 | 61 | 56 | 1.7 | 5.2 | 0.00 | 0.00 | 0.00 | 84 | 1011.5 |
| 20260506061211 | 61 | 308 | 1.7 | 2.6 | 0.00 | 0.00 | 0.00 | 83 | 1011.5 |
| 20260506060710 | 61 | 80 | 1.7 | 2.6 | 0.00 | 0.00 | 0.00 | 83 | 1011.5 |
| 20260506060206 | 62 | 111 | 0.9 | 7.0 | 0.00 | 0.00 | 0.00 | 83 | 1011.5 |
| 20260506051138 | 63 | 280 | 1.7 | 6.1 | 0.00 | 0.00 | 0.00 | 81 | 1011.5 |
| 20260506050637 | 63 | 317 | 3.5 | 7.0 | 0.00 | 0.00 | 0.00 | 81 | 1011.5 |
| 20260506050133 | 64 | 31 | 3.5 | 6.1 | 0.00 | 0.00 | 0.00 | 81 | 1011.9 |
| 20260506045127 | 64 | 17 | 3.5 | 7.0 | 0.00 | 0.00 | 0.00 | 81 | 1011.9 |
| 20260506044625 | 64 | 29 | 1.7 | 2.6 | 0.00 | 0.00 | 0.00 | 81 | 1011.9 |
| 20260506044121 | 64 | 2 | 3.5 | 5.2 | 0.00 | 0.00 | 0.00 | 81 | 1011.5 |
| 20260506043619 | 65 | 39 | 1.7 | 6.1 | 0.00 | 0.00 | 0.00 | 81 | 1011.5 |
| 20260506043117 | 65 | 159 | 2.6 | 6.1 | 0.00 | 0.00 | 0.00 | 81 | 1011.2 |
| 20260506042615 | 65 | 279 | 0.9 | 5.2 | 0.00 | 0.00 | 0.00 | 81 | 1011.2 |
| 20260506042113 | 66 | 28 | 3.5 | 6.1 | 0.00 | 0.00 | 0.00 | 80 | 1011.5 |
| 20260506041612 | 66 | 6 | 3.5 | 7.0 | 0.00 | 0.00 | 0.00 | 80 | 1011.5 |
| 20260506041108 | 66 | 237 | 1.7 | 5.2 | 0.00 | 0.00 | 0.00 | 79 | 1011.5 |
| 20260506040606 | 66 | 67 | 3.5 | 8.7 | 0.00 | 0.00 | 0.00 | 79 | 1011.5 |
| 20260506035559 | 67 | 66 | 1.7 | 4.3 | 0.00 | 0.00 | 0.00 | 78 | 1011.2 |
| 20260506035055 | 67 | 21 | 2.6 | 6.1 | 0.00 | 0.00 | 0.00 | 78 | 1011.2 |
| 20260506034553 | 67 | 47 | 4.3 | 7.0 | 0.00 | 0.00 | 0.00 | 78 | 1011.2 |
| 20260506034050 | 67 | 39 | 0.0 | 2.6 | 0.00 | 0.00 | 0.00 | 78 | 1010.8 |
| 20260506033547 | 67 | 157 | 1.7 | 5.2 | 0.00 | 0.00 | 0.00 | 77 | 1010.5 |
| 20260506033044 | 68 | 16 | 2.6 | 4.3 | 0.00 | 0.00 | 0.00 | 77 | 1010.8 |
| 20260506032541 | 68 | 47 | 2.6 | 5.2 | 0.00 | 0.00 | 0.00 | 76 | 1010.5 |
| 20260506032038 | 68 | 29 | 3.5 | 7.8 | 0.00 | 0.00 | 0.00 | 76 | 1010.5 |
| 20260506031536 | 68 | 257 | 2.6 | 5.2 | 0.00 | 0.00 | 0.00 | 76 | 1010.2 |
| 20260506031032 | 68 | 251 | 0.9 | 7.0 | 0.00 | 0.00 | 0.00 | 76 | 1010.5 |
| 20260506030531 | 68 | 135 | 2.6 | 5.2 | 0.00 | 0.00 | 0.00 | 76 | 1010.2 |
| 20260506030028 | 68 | 11 | 2.6 | 5.2 | 0.00 | 0.00 | 0.00 | 76 | 1009.8 |
| 20260506025525 | 69 | 337 | 2.6 | 6.1 | 0.00 | 0.00 | 0.00 | 75 | 1010.2 |
| 20260506025020 | 69 | 91 | 3.5 | 5.2 | 0.00 | 0.00 | 0.00 | 75 | 1009.8 |
| 20260506024518 | 69 | 207 | 0.9 | 6.1 | 0.00 | 0.00 | 0.00 | 75 | 1009.8 |
| 20260506024014 | 69 | 201 | 0.9 | 5.2 | 0.00 | 0.00 | 0.00 | 75 | 1009.8 |
| 20260506023510 | 69 | 354 | 2.6 | 4.3 | 0.00 | 0.00 | 0.00 | 75 | 1009.8 |
| 20260506023008 | 69 | 50 | 2.6 | 6.1 | 0.00 | 0.00 | 0.00 | 74 | 1009.4 |
| 20260506022505 | 70 | 32 | 3.5 | 7.0 | 0.00 | 0.00 | 0.00 | 74 | 1009.8 |
| 20260506022002 | 70 | 77 | 4.3 | 7.8 | 0.00 | 0.00 | 0.00 | 75 | 1009.4 |
| 20260506021500 | 70 | 140 | 2.6 | 6.1 | 0.00 | 0.00 | 0.00 | 75 | 1009.4 |
| 20260506020957 | 71 | 84 | 3.5 | 7.0 | 0.00 | 0.00 | 0.00 | 75 | 1009.4 |
| 20260506020454 | 71 | 65 | 1.7 | 6.1 | 0.00 | 0.00 | 0.00 | 75 | 1009.0 |
| 20260506015951 | 71 | 71 | 3.5 | 5.2 | 0.00 | 0.00 | 0.00 | 74 | 1008.7 |
| 20260506015449 | 71 | 40 | 2.6 | 6.1 | 0.00 | 0.00 | 0.00 | 74 | 1008.7 |
| 20260506014945 | 72 | 163 | 3.5 | 5.2 | 0.00 | 0.00 | 0.00 | 74 | 1008.4 |
| 20260506014442 | 72 | 160 | 0.9 | 4.3 | 0.00 | 0.00 | 0.00 | 73 | 1008.4 |
| 20260506013939 | 72 | 160 | 1.7 | 5.2 | 0.00 | 0.00 | 0.00 | 72 | 1008.4 |
| 20260506013437 | 73 | 22 | 5.2 | 7.0 | 0.00 | 0.00 | 0.00 | 72 | 1008.0 |
| 20260506012933 | 73 | 150 | 0.9 | 5.2 | 0.00 | 0.00 | 0.00 | 72 | 1008.0 |
| 20260506012429 | 73 | 178 | 2.6 | 4.3 | 0.00 | 0.00 | 0.00 | 73 | 1008.0 |
| 20260506011926 | 73 | 220 | 0.9 | 5.2 | 0.00 | 0.00 | 0.00 | 72 | 1008.0 |
| 20260506011424 | 73 | 193 | 0.0 | 2.6 | 0.00 | 0.00 | 0.00 | 71 | 1007.7 |
| 20260506010920 | 73 | 312 | 4.3 | 7.0 | 0.00 | 0.00 | 0.00 | 71 | 1007.4 |
| 20260506010420 | 74 | 302 | 2.6 | 5.2 | 0.00 | 0.00 | 0.00 | 71 | 1007.7 |
| 20260506005915 | 74 | 14 | 2.6 | 4.3 | 0.00 | 0.00 | 0.00 | 71 | 1007.7 |
| 20260506005413 | 74 | 300 | 2.6 | 5.2 | 0.00 | 0.00 | 0.00 | 71 | 1007.7 |
| 20260506004908 | 75 | 51 | 3.5 | 5.2 | 0.00 | 0.00 | 0.00 | 71 | 1007.4 |
| 20260506004407 | 75 | 48 | 5.2 | 8.7 | 0.00 | 0.00 | 0.00 | 70 | 1007.4 |
| 20260506003902 | 75 | 262 | 1.7 | 7.8 | 0.00 | 0.00 | 0.00 | 70 | 1007.4 |
| 20260506003358 | 75 | 293 | 4.3 | 6.1 | 0.00 | 0.00 | 0.00 | 69 | 1007.0 |
| 20260506002855 | 76 | 19 | 1.7 | 4.3 | 0.00 | 0.00 | 0.00 | 68 | 1007.0 |
| 20260506002351 | 76 | 255 | 1.7 | 5.2 | 0.00 | 0.00 | 0.00 | 66 | 1007.4 |
| 20260506001847 | 76 | 53 | 0.9 | 4.3 | 0.00 | 0.00 | 0.00 | 66 | 1007.0 |
| 20260506001344 | 77 | 45 | 1.7 | 4.3 | 0.00 | 0.00 | 0.00 | 66 | 1006.7 |
| 20260506000841 | 77 | 159 | 0.9 | 2.6 | 0.00 | 0.00 | 0.00 | 66 | 1007.0 |
| 20260506000340 | 77 | 49 | 1.7 | 4.3 | 0.00 | 0.00 | 0.00 | 65 | 1007.0 |
| 20260505235835 | 77 | 147 | 2.6 | 7.8 | 0.00 | 0.00 | 0.00 | 65 | 1007.0 |
| 20260505235333 | 78 | 125 | 5.2 | 7.8 | 0.00 | 0.00 | 0.00 | 66 | 1007.0 |
| 20260505234830 | 78 | 184 | 1.7 | 5.2 | 0.00 | 0.00 | 0.00 | 66 | 1007.0 |
| 20260505234328 | 79 | 54 | 2.6 | 7.8 | 0.00 | 0.00 | 0.00 | 65 | 1006.7 |
| 20260505233824 | 79 | 139 | 3.5 | 7.8 | 0.00 | 0.00 | 0.00 | 65 | 1006.7 |
| 20260505233322 | 80 | 290 | 1.7 | 7.8 | 0.00 | 0.00 | 0.00 | 66 | 1006.3 |
| 20260505232819 | 80 | 192 | 2.6 | 8.7 | 0.00 | 0.00 | 0.00 | 65 | 1006.3 |
| 20260505232317 | 80 | 315 | 5.2 | 7.8 | 0.00 | 0.00 | 0.00 | 65 | 1006.7 |
| 20260505231813 | 81 | 327 | 0.9 | 5.2 | 0.00 | 0.00 | 0.00 | 66 | 1006.3 |
| 20260505231312 | 81 | 215 | 1.7 | 7.0 | 0.00 | 0.00 | 0.00 | 66 | 1006.3 |
| 20260505230810 | 82 | 19 | 5.2 | 7.0 | 0.00 | 0.00 | 0.00 | 65 | 1006.3 |
| 20260505230306 | 84 | 336 | 5.2 | 9.6 | 0.00 | 0.00 | 0.00 | 63 | 1006.0 |
| 20260505225803 | 84 | 304 | 2.6 | 6.1 | 0.00 | 0.00 | 0.00 | 60 | 1005.7 |
| 20260505225300 | 84 | 173 | 2.6 | 4.3 | 0.00 | 0.00 | 0.00 | 57 | 1006.0 |
| 20260505224755 | 84 | 350 | 0.9 | 6.1 | 0.00 | 0.00 | 0.00 | 56 | 1006.0 |
| 20260505224253 | 84 | 294 | 6.1 | 8.7 | 0.00 | 0.00 | 0.00 | 54 | 1006.0 |
| 20260505223750 | 86 | 183 | 4.3 | 7.8 | 0.00 | 0.00 | 0.00 | 54 | 1005.7 |
| 20260505223247 | 86 | 136 | 2.6 | 5.2 | 0.00 | 0.00 | 0.00 | 53 | 1005.7 |
| 20260505222743 | 86 | 118 | 1.7 | 6.1 | 0.00 | 0.00 | 0.00 | 53 | 1005.7 |
| 20260505222239 | 87 | 341 | 5.2 | 7.0 | 0.00 | 0.00 | 0.00 | 52 | 1005.7 |
| 20260505221736 | 89 | 267 | 4.3 | 7.0 | 0.00 | 0.00 | 0.00 | 52 | 1005.7 |
| 20260505221233 | 92 | 171 | 0.9 | 0.9 | 0.00 | 0.00 | 0.00 | 50 | 1005.3 |
| 20260505220729 | 92 | 251 | 2.6 | 2.6 | 0.00 | 0.00 | 0.00 | 51 | 1005.3 |
| 20260505220227 | 91 | 202 | 0.9 | 1.7 | 0.00 | 0.00 | 0.00 | 52 | 1005.0 |
| 20260505215725 | 90 | 216 | 0.9 | 2.6 | 0.00 | 0.00 | 0.00 | 52 | 1005.3 |
| 20260505215223 | 90 | 292 | 2.6 | 2.6 | 0.00 | 0.00 | 0.00 | 52 | 1005.3 |
| 20260505214720 | 90 | 202 | 0.9 | 2.6 | 0.00 | 0.00 | 0.00 | 53 | 1005.3 |
| 20260505214218 | 90 | 175 | 1.7 | 1.7 | 0.00 | 0.00 | 0.00 | 52 | 1005.7 |
| 20260505213715 | 90 | 240 | 1.7 | 2.6 | 0.00 | 0.00 | 0.00 | 51 | 1005.3 |
| 20260505213212 | 91 | 248 | 1.7 | 2.6 | 0.00 | 0.00 | 0.00 | 50 | 1005.7 |
| 20260505212708 | 91 | 300 | 1.7 | 5.2 | 0.00 | 0.00 | 0.00 | 52 | 1005.7 |
| 20260505212205 | 91 | 311 | 3.5 | 5.2 | 0.00 | 0.00 | 0.00 | 50 | 1005.7 |
| 20260505211702 | 91 | 244 | 0.9 | 4.3 | 0.00 | 0.00 | 0.00 | 50 | 1005.7 |
| 20260505211159 | 91 | 190 | 0.9 | 4.3 | 0.00 | 0.00 | 0.00 | 51 | 1005.7 |
| 20260505210656 | 91 | 354 | 3.5 | 6.1 | 0.00 | 0.00 | 0.00 | 48 | 1005.7 |
| 20260505210153 | 92 | 298 | 2.6 | 4.3 | 0.00 | 0.00 | 0.00 | 49 | 1005.7 |
| 20260505205650 | 92 | 299 | 2.6 | 4.3 | 0.00 | 0.00 | 0.00 | 49 | 1006.0 |
| 20260505205148 | 92 | 284 | 3.5 | 5.2 | 0.00 | 0.00 | 0.00 | 49 | 1006.0 |
| 20260505204644 | 92 | 184 | 2.6 | 4.3 | 0.00 | 0.00 | 0.00 | 52 | 1006.0 |
| 20260505204143 | 92 | 204 | 1.7 | 4.3 | 0.00 | 0.00 | 0.00 | 52 | 1006.0 |
| 20260505203639 | 92 | 234 | 0.9 | 2.6 | 0.00 | 0.00 | 0.00 | 51 | 1006.3 |
| 20260505203136 | 92 | 241 | 1.7 | 2.6 | 0.00 | 0.00 | 0.00 | 51 | 1006.0 |
| 20260505202632 | 92 | 215 | 1.7 | 5.2 | 0.00 | 0.00 | 0.00 | 53 | 1006.3 |
| 20260505202128 | 91 | 134 | 1.7 | 2.6 | 0.00 | 0.00 | 0.00 | 51 | 1006.0 |
| 20260505201625 | 92 | 246 | 4.3 | 7.0 | 0.00 | 0.00 | 0.00 | 51 | 1006.3 |
| 20260505201123 | 92 | 209 | 1.7 | 1.7 | 0.00 | 0.00 | 0.00 | 54 | 1006.7 |
| 20260505200620 | 91 | 204 | 1.7 | 5.2 | 0.00 | 0.00 | 0.00 | 53 | 1006.3 |
| 20260505200117 | 90 | 212 | 2.6 | 4.3 | 0.00 | 0.00 | 0.00 | 52 | 1006.3 |
| 20260505195608 | 91 | 200 | 3.5 | 6.1 | 0.00 | 0.00 | 0.00 | 52 | 1006.3 |
| 20260505195105 | 91 | 202 | 0.9 | 4.3 | 0.00 | 0.00 | 0.00 | 55 | 1006.3 |
| 20260505194556 | 91 | 233 | 1.7 | 5.2 | 0.00 | 0.00 | 0.00 | 55 | 1006.7 |
| 20260505194052 | 91 | 185 | 3.5 | 6.1 | 0.00 | 0.00 | 0.00 | 54 | 1006.7 |
| 20260505193549 | 91 | 197 | 0.9 | 1.7 | 0.00 | 0.00 | 0.00 | 56 | 1006.7 |
| 20260505193046 | 90 | 197 | 2.6 | 6.1 | 0.00 | 0.00 | 0.00 | 56 | 1006.7 |
| 20260505192545 | 91 | 251 | 1.7 | 7.8 | 0.00 | 0.00 | 0.00 | 56 | 1006.7 |
| 20260505192042 | 91 | 201 | 1.7 | 2.6 | 0.00 | 0.00 | 0.00 | 56 | 1006.7 |
| 20260505191540 | 90 | 179 | 1.7 | 6.1 | 0.00 | 0.00 | 0.00 | 56 | 1006.7 |
| 20260505191038 | 90 | 318 | 2.6 | 8.7 | 0.00 | 0.00 | 0.00 | 57 | 1006.7 |
| 20260505190537 | 89 | 190 | 1.7 | 5.2 | 0.00 | 0.00 | 0.00 | 59 | 1006.7 |
| 20260505190034 | 89 | 294 | 2.6 | 6.1 | 0.00 | 0.00 | 0.00 | 58 | 1006.7 |
| 20260505185531 | 88 | 100 | 2.6 | 9.6 | 0.00 | 0.00 | 0.00 | 59 | 1006.7 |
| 20260505185027 | 88 | 231 | 0.9 | 2.6 | 0.00 | 0.00 | 0.00 | 59 | 1006.7 |
| 20260505184524 | 89 | 214 | 4.3 | 7.0 | 0.00 | 0.00 | 0.00 | 60 | 1006.7 |
| 20260505184021 | 88 | 96 | 2.6 | 7.0 | 0.00 | 0.00 | 0.00 | 59 | 1006.7 |
| 20260505183518 | 88 | 207 | 4.3 | 5.2 | 0.00 | 0.00 | 0.00 | 62 | 1007.0 |
| 20260505183015 | 88 | 136 | 1.7 | 7.0 | 0.00 | 0.00 | 0.00 | 64 | 1007.0 |
| 20260505182511 | 87 | 220 | 2.6 | 5.2 | 0.00 | 0.00 | 0.00 | 64 | 1006.7 |
| 20260505182009 | 87 | 334 | 2.6 | 7.0 | 0.00 | 0.00 | 0.00 | 64 | 1007.0 |
| 20260505181505 | 87 | 184 | 5.2 | 7.8 | 0.00 | 0.00 | 0.00 | 65 | 1007.0 |
| 20260505181002 | 87 | 214 | 3.5 | 6.1 | 0.00 | 0.00 | 0.00 | 65 | 1007.0 |
| 20260505180457 | 87 | 27 | 1.7 | 7.0 | 0.00 | 0.00 | 0.00 | 66 | 1007.0 |
| 20260505175955 | 86 | 155 | 0.9 | 6.1 | 0.00 | 0.00 | 0.00 | 69 | 1007.0 |
| 20260505175451 | 85 | 172 | 1.7 | 7.0 | 0.00 | 0.00 | 0.00 | 69 | 1007.0 |
| 20260505174948 | 86 | 123 | 2.6 | 6.1 | 0.00 | 0.00 | 0.00 | 69 | 1007.0 |
| 20260505174445 | 86 | 146 | 2.6 | 2.6 | 0.00 | 0.00 | 0.00 | 70 | 1007.4 |
| 20260505173941 | 84 | 186 | 2.6 | 5.2 | 0.00 | 0.00 | 0.00 | 69 | 1007.4 |
| 20260505173437 | 84 | 166 | 0.9 | 7.0 | 0.00 | 0.00 | 0.00 | 70 | 1007.4 |
| 20260505172934 | 84 | 163 | 2.6 | 4.3 | 0.00 | 0.00 | 0.00 | 71 | 1007.4 |
| 20260505172433 | 84 | 174 | 4.3 | 6.1 | 0.00 | 0.00 | 0.00 | 71 | 1007.4 |
| 20260505171932 | 83 | 191 | 3.5 | 6.1 | 0.00 | 0.00 | 0.00 | 72 | 1007.7 |
| 20260505171429 | 82 | 212 | 4.3 | 7.0 | 0.00 | 0.00 | 0.00 | 73 | 1007.4 |
| 20260505170926 | 82 | 194 | 1.7 | 6.1 | 0.00 | 0.00 | 0.00 | 74 | 1007.4 |
| 20260505170422 | 82 | 359 | 1.7 | 4.3 | 0.00 | 0.00 | 0.00 | 74 | 1007.4 |
| 20260505165918 | 82 | 174 | 1.7 | 4.3 | 0.00 | 0.00 | 0.00 | 74 | 1007.0 |